Starlink 35744

operational
NORAD ID: 66581 Int'l Des: 2025-268 Owner: SPXS Country: US Constellation: starlink
LEOCIRCULAR

Über Starlink 35744

Beschreibung wird geladen...

Live-Position

3D-Globus wird geladen...

Nächste Überflüge

Höhenverlauf

Altitude vs Time

uPlot chart will show altitude changes over time

Zweizeiliger Elementsatz

1 66581U 25268AA 26070.13941139 .00016907 00000-0 62200-3 0 9991
2 66581 43.0026 338.6873 0001274 270.6238 89.4467 15.27607026 18185
Epoch: 11. März 2026 • Age: 43 hours

Aktueller Status

Höhe 482.5 km
Geschwindigkeit 7.63 km/s
Subsatellitenpunkt 17.21°N, 30.83°E
Startdatum 21. Nov. 2025
Alter 0.3 years
Typ internet

Technische Details

Klassifizierung Payload
Masse 575.00 kg
Trockenmasse 530.00 kg
Gesamtmasse 575.00 kg
Länge 0.30 m
Durchmesser 4.10 m
Spannweite 29.00 m
Form Box + pan
Hersteller SPXS
Bus-Typ Starlink V2MO
Phasenstatus In Orbit
Besitzer/Staat SPXS/US

Große Konstellationen

Loading constellations...